This demonstration page uses our WeatherBlox Daily Observations layout. Learn more.

Left ArrowRight Arrow

39.01783, -85.05884

Hourly Observations for May 13, 2015

Temp ( °F °C ) Dew Point ( °F °C ) Humidity (%) Winds ( mph kmh ) Pressure ( in mb ) Visibility ( mi km ) Precip ( " mm )
12:52 am 00:52 Mostly Cloudy 54 12.2 43 6.1 67 67 N 5 7 30.24 1024 10 16 0.00 0.00
1:52 am 01:52 Mostly Cloudy 53 11.7 43 6.1 69 69 N 5 7 30.26 1025 10 16 0.00 0.00
2:52 am 02:52 Partly Cloudy 51 10.6 42 5.6 71 71 NNW 5 7 30.26 1025 10 16 0.00 0.00
3:52 am 03:52 Mostly Clear 48 8.9 42 5.6 80 80 Calm 30.26 1025 10 16 0.00 0.00
4:52 am 04:52 Clear 47 8.3 42 5.6 83 83 NW 3 6 30.29 1026 10 16 0.00 0.00
5:52 am 05:52 Clear 43 6.1 41 5 93 93 Calm 30.30 1026 10 16 0.00 0.00
6:52 am 06:52 Mostly Sunny 44 6.7 42 5.6 93 93 W 3 6 30.33 1027 8 13 0.00 0.00
7:52 am 07:52 Sunny 50 10 44 6.7 80 80 NNW 7 11 30.34 1028 10 16 0.00 0.00
8:52 am 08:52 Sunny 53 11.7 44 6.7 72 72 N 10 17 30.37 1028 10 16 0.00 0.00
9:52 am 09:52 Mostly Sunny 56 13.3 40 4.4 55 55 N 13 20 30.38 1029 10 16 0.00 0.00
10:52 am 10:52 Mostly Sunny 57 13.9 40 4.4 53 53 VRB 6 9 30.37 1029 10 16 0.00 0.00
11:52 am 11:52 Sunny 60 15.6 40 4.4 47 47 NNE 9 15 30.38 1029 10 16 0.00 0.00
12:52 pm 12:52 Sunny 61 16.1 39 3.9 44 44 Calm 30.38 1029 10 16 0.00 0.00
1:52 pm 13:52 Mostly Sunny 63 17.2 39 3.9 41 41 N 12 19 30.35 1028 10 16 0.00 0.00
2:52 pm 14:52 Mostly Sunny 64 17.8 39 3.9 40 40 Calm 30.33 1027 10 16 0.00 0.00
3:52 pm 15:52 Partly Cloudy 67 19.4 41 5 39 39 VRB 7 11 30.33 1027 10 16 0.00 0.00
4:52 pm 16:52 Partly Cloudy 67 19.4 40 4.4 37 37 NW 3 6 30.32 1027 10 16 0.00 0.00
5:52 pm 17:52 Mostly Cloudy 68 20 40 4.4 36 36 N 8 13 30.31 1027 10 16 0.00 0.00
6:52 pm 18:52 Mostly Cloudy 66 18.9 39 3.9 37 37 NE 9 15 30.31 1026 10 16 0.00 0.00
7:52 pm 19:52 Mostly Cloudy 64 17.8 40 4.4 41 41 NE 9 15 30.31 1026 10 16 0.00 0.00
8:52 pm 20:52 Mostly Cloudy 63 17.2 40 4.4 43 43 NNE 9 15 30.32 1027 10 16 0.00 0.00
9:52 pm 21:52 Mostly Cloudy 61 16.1 40 4.4 46 46 NNE 8 13 30.34 1027 10 16 0.00 0.00
10:52 pm 22:52 Partly Cloudy 58 14.4 41 5 53 53 NNE 6 9 30.37 1028 10 16 0.00 0.00
11:52 pm 23:52 Mostly Clear 59 15 41 5 51 51 NE 7 11 30.36 1028 10 16 0.00 0.00

Powered by AerisWeather